DELTA 1 DEB, 7039

Orbit data source: Space-Track

DELTA 1 DEB, 7039 is space debris in SSO originally from a launch on Tue, 06 Nov 1973 UTC launched from the Air Force Western Test Range (AFWTR). Debris objects in space refer to the collection of defunct objects orbiting the Earth. Examples of debris include non-operational satellites, rocket bodies, and fragments generated from explosions, collisions, or faulty payload assembly.

Loading next visibility...
Identifier
7039, 1973-086AF
Orbit
SSO
Last TLE update
4 hours ago
Origin
Manufacturer
Unknown
Mission
Spacecraft
Bus & Motor
Unknown
Mass
Unknown
Launch date (UTC)
1973-11-06 (52 years ago)
Launch vehicle
Unknown
Launch site
Air Force Western Test Range (AFWTR)
Object type
Payload
Rocket body
Debris
Shape & HBR
Unknown
Radar Cross Section
Medium (>0.1 m² and <1 m²)

Expand to show TLE details & history

TLE from 4 hours ago
0 DELTA 1 DEB
1  7039U 73086AF  25199.51280319  .00000049  00000-0  63090-3 0  9992
2  7039 102.5169 180.4214 0128782 191.5110 291.3215 12.49549934355681
Epoch: 2025-07-18T12:18Z
TLE epoch observation values (Epoch: 2025-07-18T12:18:26.195Z)
Latitude
56.4846°
Longitude
-101.26573°
Altitude
1,439.983 km
Speed
7.163 km/s
True Right ascension
01h 19m 37s
True Declination
56° 20' 24"
Sunlit
Object was in daylight at epoch
Visualization orbit readout
Latitude
72.39981°
Longitude
-76.44863°
Altitude
1,474.981 km
Speed
7.134 km/s
Apparent Right ascension
18h 15m 44s
Apparent Declination
48° 30' 45"
Sunlit
Object is in daylight
Visualization observer readout
Local Sidereal Time
04:49:23
Azimuth
345.893° N
Elevation
0.471°
Doppler factor
1
Orbital elements
Apogee altitude
1,564.963 km
Perigee altitude
1,362.979 km
Semi-major axis
7,842.108 km
Eccentricity
0.01288
Inclination
102.5169°
RAAN
180.4214°
Arg. of periapsis
191.511°
True anomaly
289.93882°
Mean anomaly
291.3215°
Eccentric anomaly
290.63095°
Mean motion
3.12532 °/min
Orbital period
115.19 mins
BSTAR
0.0006309
Loading maneuver chart data...
Loading SW <> Apogee altitude chart data...
Loading historical data...
Loading historical data...
Loading historical data...
Loading historical data...
Loading historical data...
Loading historical data...
Loading historical data...
|